Pope Field Airport, NC

7:17 AM EST on December 11, 2017 (GMT -0500)
Pope Field Airport

Weather History for KPOB - February, 2014

Change the Weather History Date:

Monday, February 10, 2014

  Actual Average Record
Temperature  
Mean Temperature 41 °F -  
Max Temperature 47 °F 55 °F 73 °F (1990)
Min Temperature 35 °F 31 °F 16 °F (1979)
Degree Days  
Heating Degree Days 24    
Moisture  
Dew Point 34 °F    
Average Humidity 86    
Maximum Humidity 100    
Minimum Humidity 43    
Precipitation  
Precipitation 0.03 in - - ()
Sea Level Pressure  
Sea Level Pressure 30.19 in    
Wind  
Wind Speed 5 mph (NE)    
Max Wind Speed 14 mph    
Max Gust Speed -    
Visibility 10 miles    
Events Rain    
Averages and records for this station are not official NWS values.
T = Trace of Precipitation, MM = Missing Value Source: NWS Daily Summary

Daily Weather History Graph

Daily Weather History Graph

Search for Another Location

Airport or City:

Trip Planner

Search our weather history database for the weather conditions in past years. The results will help you decide how hot, cold, wet, or windy it might be!

Date:

Astronomy

Feb. 10, 2014 Rise Set
Actual Time 7:07 AM EST 5:53 PM EST
Civil Twilight 6:41 AM EST 6:19 PM EST
Nautical Twilight 6:11 AM EST 6:49 PM EST
Astronomical Twilight 5:41 AM EST 7:19 PM EST
Moon 2:24 PM EST (2/10) 3:55 AM EST (2/10)
Length of Visible Light 11h 38m
Length of Day
10h 46m
Waxing Gibbous, 84% of the Moon is Illuminated
Feb 10
Waxing Gibbous
Feb 14
Full
Feb 22
Last Quarter
Mar 1
New
Mar 8
First Quarter

Hourly Weather History & Observations

Time (EST) Temp. Windchill Dew Point Humidity Pressure Visibility Wind Dir Wind Speed Gust Speed Precip Events Conditions
12:58 AM 41.0 °F - 38.3 °F 90% 30.02 in 10.0 mi Calm Calm - N/A   Clear
1:58 AM 40.3 °F - 37.9 °F 91% 30.05 in 10.0 mi WSW 2.3 mph - N/A   Clear
2:58 AM 37.4 °F - 36.0 °F 95% 30.05 in 10.0 mi NE 1.2 mph - N/A   Clear
3:58 AM 36.3 °F - 34.5 °F 93% 30.06 in 10.0 mi North 2.3 mph - N/A   Clear
4:58 AM 36.7 °F - 34.7 °F 93% 30.08 in 10.0 mi Calm Calm - N/A   Clear
5:58 AM 39.9 °F 36.7 °F 35.1 °F 83% 30.08 in 10.0 mi ENE 4.6 mph - N/A   Overcast
6:58 AM 39.4 °F 36.1 °F 34.5 °F 83% 30.12 in 10.0 mi NNE 4.6 mph - N/A   Clear
7:58 AM 39.9 °F - 34.2 °F 80% 30.14 in 10.0 mi NNE 2.3 mph - N/A   Mostly Cloudy
8:58 AM 41.9 °F 40.0 °F 34.2 °F 74% 30.18 in 10.0 mi ENE 3.5 mph - N/A   Mostly Cloudy
9:58 AM 43.7 °F 39.7 °F 31.1 °F 61% 30.19 in 10.0 mi ENE 6.9 mph - N/A   Overcast
10:58 AM 45.7 °F 39.8 °F 27.3 °F 49% 30.19 in 10.0 mi ENE 12.7 mph - N/A   Overcast
11:58 AM 47.3 °F - 26.1 °F 44% 30.16 in 10.0 mi ENE 12.7 mph - N/A   Overcast
12:58 PM 46.6 °F - 25.3 °F 43% 30.17 in 10.0 mi NNE 12.7 mph - N/A   Overcast
1:58 PM 46.4 °F 40.4 °F 26.8 °F 46% 30.13 in 10.0 mi NE 13.8 mph - N/A   Overcast
2:58 PM 45.0 °F 40.6 °F 30.2 °F 56% 30.14 in 10.0 mi NNE 8.1 mph - N/A   Overcast
3:58 PM 43.2 °F 37.0 °F 31.1 °F 62% 30.17 in 10.0 mi NNE 11.5 mph - N/A   Overcast
4:08 PM 42.8 °F 36.6 °F 32.0 °F 66% 30.16 in 10.0 mi NE 11.5 mph - N/A   Overcast
4:18 PM 42.8 °F 36.6 °F 32.0 °F 66% 30.16 in 10.0 mi NNE 11.5 mph - N/A   Overcast
4:31 PM 41.0 °F 34.7 °F 32.0 °F 70% 30.16 in 10.0 mi NNE 10.4 mph - N/A Rain Light Rain
4:53 PM 41.0 °F 35.2 °F 32.0 °F 70% 30.17 in 10.0 mi NNE 9.2 mph - N/A   Overcast
4:58 PM 40.6 °F 33.8 °F 32.4 °F 72% 30.19 in 10.0 mi NNE 11.5 mph - 0.00 in   Overcast
5:02 PM 41.0 °F 35.8 °F 32.0 °F 70% 30.17 in 10.0 mi NNE 8.1 mph - N/A   Light Drizzle
5:47 PM 37.4 °F 31.4 °F 35.6 °F 93% 30.19 in 10.0 mi NNE 8.1 mph - N/A Rain Light Rain
5:57 PM 37.4 °F 32.1 °F 35.6 °F 93% 30.20 in 10.0 mi North 6.9 mph - N/A Rain Light Rain
5:58 PM 37.4 °F 32.8 °F 35.6 °F 93% 30.22 in 10.0 mi NNE 5.8 mph - 0.00 in Rain Light Rain
6:03 PM 37.4 °F 31.4 °F 35.6 °F 93% 30.19 in 10.0 mi NNE 8.1 mph - N/A Rain Light Rain
6:28 PM 37.4 °F 32.8 °F 35.6 °F 93% 30.20 in 10.0 mi NE 5.8 mph - N/A Rain Light Rain
6:33 PM 37.4 °F 32.1 °F 35.6 °F 93% 30.20 in 10.0 mi NE 6.9 mph - N/A Rain Light Rain
6:43 PM 37.4 °F 32.8 °F 35.6 °F 93% 30.20 in 10.0 mi NE 5.8 mph - N/A Rain Light Rain
6:47 PM 37.4 °F 33.8 °F 35.6 °F 93% 30.20 in 10.0 mi NE 4.6 mph - N/A Rain Light Rain
6:52 PM 37.4 °F 32.8 °F 35.6 °F 93% 30.20 in 10.0 mi NE 5.8 mph - N/A Rain Light Rain
6:57 PM 37.4 °F 32.8 °F 35.6 °F 93% 30.20 in 10.0 mi NE 5.8 mph - N/A Rain Light Rain
6:58 PM 37.4 °F 32.8 °F 36.1 °F 95% 30.22 in 10.0 mi NE 5.8 mph - 0.00 in Rain Light Rain
7:28 PM 37.4 °F 32.1 °F 35.6 °F 93% 30.21 in 10.0 mi NE 6.9 mph - N/A Rain Light Rain
7:33 PM 37.4 °F 32.1 °F 35.6 °F 93% 30.21 in 8.0 mi NE 6.9 mph - N/A Rain Light Rain
7:53 PM 37.4 °F 32.1 °F 35.6 °F 93% 30.21 in 10.0 mi NE 6.9 mph - N/A Rain Light Rain
7:58 PM 37.4 °F 31.4 °F 35.6 °F 93% 30.22 in 10.0 mi NE 8.1 mph - 0.01 in Rain Light Rain
8:07 PM 37.4 °F 32.1 °F 35.6 °F 93% 30.20 in 10.0 mi ENE 6.9 mph - N/A   Overcast
8:17 PM 37.4 °F 32.8 °F 35.6 °F 93% 30.22 in 10.0 mi NE 5.8 mph - N/A   Overcast
8:27 PM 37.4 °F 32.8 °F 35.6 °F 93% 30.21 in 10.0 mi NE 5.8 mph - N/A   Overcast
8:52 PM 37.4 °F 32.8 °F 35.6 °F 93% 30.22 in 10.0 mi NE 5.8 mph - N/A   Overcast
8:58 PM 36.9 °F 31.4 °F 35.6 °F 95% 30.24 in 10.0 mi NE 6.9 mph - 0.00 in Rain Light Rain
9:03 PM 37.4 °F 32.8 °F 35.6 °F 93% 30.23 in 10.0 mi NE 5.8 mph - N/A Rain Light Rain
9:09 PM 37.4 °F 32.1 °F 35.6 °F 93% 30.22 in 10.0 mi ENE 6.9 mph - N/A Rain Light Rain
9:24 PM 37.4 °F 33.8 °F 35.6 °F 93% 30.23 in 8.0 mi NE 4.6 mph - N/A Rain Light Rain
9:34 PM 37.4 °F 32.8 °F 35.6 °F 93% 30.23 in 7.0 mi NE 5.8 mph - N/A Rain Light Rain
9:54 PM 35.6 °F 30.7 °F 35.6 °F 100% 30.24 in 8.0 mi NE 5.8 mph - N/A Rain Light Rain
9:58 PM 36.3 °F 31.6 °F 35.2 °F 96% 30.25 in 8.0 mi ENE 5.8 mph - 0.01 in Rain Light Rain
10:28 PM 35.6 °F 30.7 °F 35.6 °F 100% 30.23 in 9.0 mi ENE 5.8 mph - N/A Rain Light Rain
10:38 PM 35.6 °F 30.7 °F 35.6 °F 100% 30.24 in 10.0 mi ENE 5.8 mph - N/A Rain Light Rain
10:43 PM 35.6 °F 31.7 °F 35.6 °F 100% 30.23 in 9.0 mi ENE 4.6 mph - N/A Rain Light Rain
10:48 PM 35.6 °F 31.7 °F 35.6 °F 100% 30.23 in 10.0 mi ENE 4.6 mph - N/A   Overcast
10:53 PM 35.6 °F 31.7 °F 35.6 °F 100% 30.23 in 10.0 mi ENE 4.6 mph - N/A   Overcast
10:58 PM 36.1 °F 32.3 °F 35.1 °F 96% 30.25 in 10.0 mi ENE 4.6 mph - 0.01 in   Overcast
11:18 PM 35.6 °F 30.7 °F 35.6 °F 100% 30.24 in 10.0 mi ENE 5.8 mph - N/A   Overcast
11:38 PM 35.6 °F 30.7 °F 35.6 °F 100% 30.24 in 10.0 mi ENE 5.8 mph - N/A   Overcast
11:43 PM 35.6 °F 30.7 °F 33.8 °F 93% 30.24 in 10.0 mi ENE 5.8 mph - N/A   Overcast
11:58 PM 36.0 °F 33.3 °F 34.7 °F 95% 30.27 in 10.0 mi ENE 3.5 mph - N/A   Overcast